Weather History for Los Alamitos, CA

Change the Weather History Date:

Saturday, September 14, 2013

  Actual Average Record
Temperature  
Mean Temperature 71 °F -  
Max Temperature 82 °F 79 °F 102 °F (2012)
Min Temperature 60 °F 64 °F 55 °F (2010)
Cooling Degree Days 6    
Growing Degree Days 21 (Base 50)    
Moisture  
Dew Point 62 °F    
Average Humidity 89    
Maximum Humidity 100    
Minimum Humidity 35    
Precipitation  
Precipitation 0.00 in - - ()
Sea Level Pressure  
Sea Level Pressure 29.69 in    
Wind  
Wind Speed 3 mph (SSW)    
Max Wind Speed 12 mph    
Max Gust Speed -    
Visibility 6 miles    
Events Fog    
Averages and records for this station are not official NWS values.
T = Trace of Precipitation, MM = Missing Value Source: NWS Daily Summary

Daily Weather History Graph

Daily Weather History Graph

Search for Another Location

Airport:

Trip Planner

Search our weather history database for the weather conditions in past years. The results will help you decide how hot, cold, wet, or windy it might be!

Date:

Astronomy

Sep. 14, 2013 Rise Set
Actual Time 6:35 AM PDT 6:59 PM PDT
Civil Twilight 6:10 AM PDT 7:24 PM PDT
Nautical Twilight 5:40 AM PDT 7:53 PM PDT
Astronomical Twilight 5:10 AM PDT 8:23 PM PDT
Moon 3:34 PM PDT (9/14) 1:23 AM PDT (9/14)
Length of Visible Light 13h 14m
Length of Day
12h 24m
Waxing Gibbous, 73% of the Moon is Illuminated
Sep 14
Waxing Gibbous
Sep 19
Full
Sep 26
Last Quarter
Oct 4
New
Oct 11
First Quarter

Hourly Weather History & Observations

Time (PDT) Temp. Heat Index Dew Point Humidity Pressure Visibility Wind Dir Wind Speed Gust Speed Precip Events Conditions
12:55 AM 64.4 °F - 64.4 °F 100% 29.70 in 10.0 mi ESE 2.3 mph - N/A   Clear
1:55 AM 62.6 °F - 62.6 °F 100% 29.69 in 10.0 mi Calm Calm - N/A   Clear
2:55 AM 62.6 °F - 62.6 °F 100% 29.69 in 10.0 mi SE 3.5 mph - N/A   Clear
3:55 AM 60.8 °F - 60.8 °F 100% 29.68 in 9.0 mi Calm Calm - N/A   Clear
4:55 AM 60.8 °F - 60.8 °F 100% 29.69 in 7.0 mi South 2.3 mph - N/A   Clear
5:44 AM 60.8 °F - 60.8 °F 100% 29.69 in 6.0 mi SSW 2.3 mph - N/A   Partly Cloudy
5:53 AM 60.8 °F - 60.8 °F 100% 29.69 in 2.0 mi SSW 3.5 mph - N/A   Mostly Cloudy
5:54 AM 60.8 °F - 60.8 °F 100% 29.69 in 1.2 mi SSW 3.5 mph - N/A   Mostly Cloudy
5:55 AM 60.8 °F - 60.8 °F 100% 29.69 in 1.0 mi SW 3.5 mph - N/A   Mist
5:56 AM 60.8 °F - 60.8 °F 100% 29.69 in 0.8 mi SW 2.3 mph - N/A   Mist
5:57 AM 60.8 °F - 60.8 °F 100% 29.69 in 0.5 mi SSW 2.3 mph - N/A Fog Fog
6:00 AM 60.8 °F - 60.8 °F 100% 29.69 in 0.2 mi SSW 2.3 mph - N/A Fog Fog
6:04 AM 60.8 °F - 60.8 °F 100% 29.70 in 0.2 mi South 2.3 mph - N/A Fog Fog
6:55 AM 60.8 °F - 60.8 °F 100% 29.71 in 0.2 mi SSW 3.5 mph - N/A Fog Fog
7:55 AM 62.2 °F - 62.2 °F 100% 29.72 in 0.1 mi WSW 2.3 mph - N/A Fog Fog
8:33 AM 62.6 °F - 62.6 °F 100% 29.72 in 0.5 mi WSW 2.3 mph - N/A Fog Fog
8:37 AM 62.6 °F - 62.6 °F 100% 29.72 in 0.5 mi West 1.2 mph - N/A Fog Fog
8:41 AM 62.6 °F - 62.6 °F 100% 29.72 in 0.8 mi SW 2.3 mph - N/A   Mist
8:46 AM 62.6 °F - 62.6 °F 100% 29.72 in 1.0 mi SSW 3.5 mph - N/A   Mist
8:50 AM 62.6 °F - 62.6 °F 100% 29.72 in 1.2 mi South 1.2 mph - N/A   Overcast
8:55 AM 63.7 °F - 63.7 °F 100% 29.73 in 1.5 mi Calm Calm - N/A   Overcast
9:04 AM 64.4 °F - 64.4 °F 100% 29.72 in 2.0 mi South 3.5 mph - N/A   Mostly Cloudy
9:11 AM 64.4 °F - 64.4 °F 100% 29.72 in 2.0 mi SSW 4.6 mph - N/A   Mostly Cloudy
9:34 AM 66.2 °F - 66.2 °F 100% 29.73 in 3.0 mi Variable 4.6 mph - N/A   Scattered Clouds
9:55 AM 66.9 °F - 66.9 °F 100% 29.73 in 7.0 mi South 5.8 mph - N/A   Partly Cloudy
10:55 AM 72.3 °F - 66.2 °F 81% 29.73 in 10.0 mi SSW 5.8 mph - N/A   Partly Cloudy
11:55 AM 74.1 °F - 65.1 °F 73% 29.72 in 10.0 mi SSW 8.1 mph - N/A   Clear
12:55 PM 74.8 °F - 64.8 °F 71% 29.70 in 10.0 mi SSW 10.4 mph - N/A   Clear
1:55 PM 75.2 °F - 63.3 °F 66% 29.68 in 10.0 mi SSW 10.4 mph - N/A   Clear
2:55 PM 74.7 °F - 62.8 °F 66% 29.66 in 10.0 mi South 11.5 mph - N/A   Clear
3:55 PM 75.2 °F - 62.6 °F 65% 29.64 in 10.0 mi South 6.9 mph - N/A   Clear
4:55 PM 82.4 °F 82.5 °F 59.0 °F 45% 29.63 in 10.0 mi SSW 5.8 mph - N/A   Clear
5:55 PM 82.4 °F - 51.8 °F 35% 29.63 in 10.0 mi West 6.9 mph - N/A   Clear
6:55 PM 77.0 °F - 51.8 °F 41% 29.63 in 10.0 mi WNW 5.8 mph - N/A   Clear
7:55 PM 73.4 °F - 57.2 °F 57% 29.65 in 10.0 mi West 5.8 mph - N/A   Clear
8:55 PM 69.8 °F - 55.4 °F 60% 29.67 in 10.0 mi WNW 3.5 mph - N/A   Clear
9:55 PM 68.0 °F - 66.2 °F 94% 29.68 in 10.0 mi SSW 5.8 mph - N/A   Clear
10:55 PM 66.2 °F - 66.2 °F 100% 29.69 in 10.0 mi South 3.5 mph - N/A   Clear
11:55 PM 64.4 °F - 64.4 °F 100% 29.70 in 10.0 mi South 3.5 mph - N/A   Clear